ISS DEB (SPX-26 IPA FSE)

Last updated on Sun Dec 24 2023 00:02:06 GMT+0000 (Coordinated Universal Time)

1 55448U 98067VB 23357.60516424 .08905512 12548-4 44128-3 0 9990 2 55448 51.6104 65.1026 0004554 338.3161 176.0212 16.42868885 51144

Satellite not in orbit